Norfolk, VA

7:04 PM EST on February 08, 2016 (GMT -0500)
Norfolk International

Weather History for KORF - October, 2013

Change the Weather History Date:

Tuesday, October 15, 2013

  Actual Average Record
Temperature  
Mean Temperature 65 °F 62 °F  
Max Temperature 68 °F 70 °F 89 °F (1985)
Min Temperature 62 °F 54 °F 31 °F (1876)
Degree Days  
Heating Degree Days 0 4  
Month to date heating degree days 6 43  
Since 1 July heating degree days 14 54  
Cooling Degree Days 0 2  
Month to date cooling degree days 74 40  
Year to date cooling degree days 1736 1605  
Growing Degree Days 15 (Base 50)    
Moisture  
Dew Point 61 °F    
Average Humidity 89    
Maximum Humidity 93    
Minimum Humidity 84    
Precipitation  
Precipitation 0.00 in 0.10 in 1.62 in (2009)
Month to date precipitation 4.12 1.69  
Year to date precipitation 38.32 38.39  
Snow  
Snow 0.00 in 0.00 in 0.00 in (2002)
Month to date snowfall 0.0 0.0  
Since 1 July snowfall 0.0 0.0  
Snow Depth 0.00 in    
Sea Level Pressure  
Sea Level Pressure 30.11 in    
Wind  
Wind Speed 14 mph (NNE)    
Max Wind Speed 22 mph    
Max Gust Speed 26 mph    
Visibility 10 miles    
Events      
T = Trace of Precipitation, MM = Missing Value Source: NWS Daily Summary

Daily Weather History Graph

Daily Weather History Graph

Search for Another Location

Airport or City:

Trip Planner

Search our weather history database for the weather conditions in past years. The results will help you decide how hot, cold, wet, or windy it might be!

Date:

Astronomy

Oct. 15, 2013 Rise Set
Actual Time 7:12 AM EDT 6:27 PM EDT
Civil Twilight 6:46 AM EDT 6:53 PM EDT
Nautical Twilight 6:16 AM EDT 7:24 PM EDT
Astronomical Twilight 5:46 AM EDT 7:54 PM EDT
Moon 4:27 PM EDT (10/15) 3:37 AM EDT (10/15)
Length of Visible Light 12h 07m
Length of Day
11h 15m
Waxing Gibbous, 87% of the Moon is Illuminated
Oct 15
Waxing Gibbous
Oct 18
Full
Oct 26
Last Quarter
Nov 3
New
Nov 10
First Quarter

Hourly Weather History & Observations

Time (EDT) Temp. Dew Point Humidity Pressure Visibility Wind Dir Wind Speed Gust Speed Precip Events Conditions
12:11 AM 62.6 °F 57.2 °F 82% 30.19 in 10.0 mi NNE 17.3 mph - N/A   Scattered Clouds
12:51 AM 63.0 °F 57.9 °F 84% 30.17 in 10.0 mi NNE 13.8 mph 23.0 mph N/A   Clear
1:51 AM 63.0 °F 57.9 °F 84% 30.16 in 10.0 mi NNE 17.3 mph - N/A   Clear
2:36 AM 62.6 °F 57.2 °F 82% 30.15 in 10.0 mi NNE 13.8 mph - N/A   Mostly Cloudy
2:51 AM 62.1 °F 57.9 °F 86% 30.14 in 10.0 mi NNE 17.3 mph - N/A   Overcast
3:51 AM 62.1 °F 57.9 °F 86% 30.13 in 10.0 mi NNE 15.0 mph - N/A   Overcast
4:51 AM 63.0 °F 59.0 °F 87% 30.13 in 10.0 mi NE 17.3 mph - N/A   Overcast
5:51 AM 63.0 °F 59.0 °F 87% 30.13 in 10.0 mi NNE 11.5 mph - N/A   Overcast
6:11 AM 62.6 °F 59.0 °F 88% 30.13 in 10.0 mi North 12.7 mph - N/A   Overcast
6:51 AM 63.0 °F 60.1 °F 90% 30.12 in 10.0 mi NNE 16.1 mph 24.2 mph N/A   Overcast
7:51 AM 63.0 °F 60.1 °F 90% 30.13 in 10.0 mi North 13.8 mph 19.6 mph N/A   Overcast
8:51 AM 63.0 °F 61.0 °F 93% 30.14 in 10.0 mi North 13.8 mph - N/A   Overcast
9:51 AM 64.9 °F 61.0 °F 87% 30.13 in 10.0 mi NNE 13.8 mph - N/A   Overcast
10:51 AM 66.0 °F 62.1 °F 87% 30.13 in 10.0 mi NNE 19.6 mph 25.3 mph N/A   Overcast
11:51 AM 66.0 °F 62.1 °F 87% 30.12 in 10.0 mi NNE 18.4 mph - N/A   Overcast
12:27 PM 66.2 °F 62.6 °F 88% 30.11 in 10.0 mi NNE 16.1 mph - N/A   Overcast
12:51 PM 66.9 °F 62.1 °F 84% 30.11 in 10.0 mi NNE 13.8 mph - N/A   Overcast
1:51 PM 66.9 °F 62.1 °F 84% 30.08 in 10.0 mi North 10.4 mph - N/A   Overcast
2:51 PM 66.9 °F 62.1 °F 84% 30.08 in 10.0 mi NNE 12.7 mph - N/A   Overcast
3:51 PM 66.9 °F 62.1 °F 84% 30.07 in 10.0 mi NNE 16.1 mph - N/A   Overcast
4:51 PM 66.9 °F 62.1 °F 84% 30.08 in 10.0 mi NNE 16.1 mph - N/A   Overcast
5:51 PM 66.0 °F 62.1 °F 87% 30.08 in 10.0 mi NNE 13.8 mph - N/A   Overcast
6:51 PM 66.0 °F 62.1 °F 87% 30.07 in 10.0 mi NNE 19.6 mph - N/A   Overcast
7:51 PM 66.0 °F 62.1 °F 87% 30.07 in 10.0 mi NNE 16.1 mph - N/A   Overcast
8:51 PM 66.0 °F 63.0 °F 90% 30.07 in 10.0 mi NE 9.2 mph - N/A   Overcast
9:12 PM 66.2 °F 62.6 °F 88% 30.08 in 10.0 mi NNE 9.2 mph - N/A   Overcast
9:51 PM 66.0 °F 63.0 °F 90% 30.07 in 10.0 mi NNE 11.5 mph - N/A   Overcast
10:51 PM 66.9 °F 64.0 °F 90% 30.07 in 10.0 mi NNE 11.5 mph - N/A   Overcast
11:51 PM 66.0 °F 64.0 °F 93% 30.05 in 10.0 mi NNE 10.4 mph - N/A   Overcast